Theta_e
351 349 349 338 330 331 329 329 328 330 330 333 335 337 341 341 340 338 329 325 333 337 338 336 336 338 340 341 340 340 337 335 331 327 325 330 339 341 340 341 341 341 341 341 341 340 341 341 340 341 340 339 335 334 337 337 337 336 336 337 337 338 338 336 336 337 338 337 336 336 334 333 331 332 332 331 331 331 332 331 330 327 328 329 327
351 349 347 336 330 330 330 331 327 329 330 333 334 337 341 341 341 337 328 329 338 339 339 338 338 341 341 342 341 339 335 331 326 323 321 326 337 341 341 341 341 341 341 340 340 339 339 341 341 341 339 338 336 335 336 336 337 336 337 338 338 338 338 338 338 337 335 334 335 335 333 332 332 332 332 330 330 330 330 329 329 327 325 326 326
350 349 346 335 330 330 330 330 328 330 330 334 335 338 341 341 341 334 330 335 340 338 339 339 340 341 341 341 339 337 332 327 323 323 319 323 333 338 341 341 340 340 339 339 338 339 339 339 340 340 339 338 337 335 335 335 336 335 337 338 339 338 338 338 337 336 332 330 331 332 330 330 331 331 330 330 330 329 329 329 329 328 326 326 326
350 349 346 335 330 329 329 330 329 330 331 333 335 338 340 340 338 333 336 339 339 338 339 340 341 341 340 339 337 334 329 327 326 325 322 325 330 335 340 341 340 339 339 338 338 339 339 339 339 340 339 338 336 335 335 334 334 334 335 337 339 339 338 337 337 335 333 332 332 332 331 332 332 332 331 332 332 330 330 331 330 328 327 327 326
351 350 346 338 335 332 328 329 329 329 330 332 335 337 338 338 335 335 339 339 338 338 339 340 341 340 339 337 336 333 330 330 330 329 327 327 329 333 339 340 340 339 339 338 338 339 338 338 339 339 339 338 336 335 335 334 334 333 334 335 336 338 337 336 336 333 332 335 335 335 335 333 333 333 333 333 332 331 331 332 331 329 326 326 326
351 349 346 342 342 338 328 328 328 328 328 328 332 337 338 338 337 338 340 338 337 337 338 339 339 337 336 336 334 334 334 335 335 335 333 328 329 334 339 340 340 339 339 338 337 337 338 338 338 338 338 338 336 334 335 334 333 333 334 334 335 336 336 335 333 331 332 335 335 335 335 334 333 333 332 331 331 331 331 331 332 330 327 326 327
351 349 345 343 345 338 328 327 326 326 326 326 329 334 339 340 340 339 339 337 336 336 336 336 335 334 334 334 335 337 338 339 339 339 337 332 334 338 340 340 340 339 338 338 337 337 338 337 338 338 338 337 335 334 334 333 333 333 334 333 334 334 334 332 331 332 334 335 336 336 335 335 334 333 331 331 331 331 330 330 331 331 328 326 327
350 349 346 345 344 336 328 327 325 325 324 325 326 331 337 338 337 336 336 335 334 334 333 332 332 332 334 336 338 339 340 340 340 340 339 338 338 339 339 338 339 338 338 338 337 337 337 337 337 337 338 337 335 334 334 333 332 332 332 332 333 333 332 330 330 333 335 335 336 336 336 336 335 333 331 331 332 330 329 330 330 330 329 327 327
349 349 346 346 344 333 328 327 326 325 323 323 324 326 330 331 332 332 332 331 332 332 332 332 334 335 337 338 339 339 340 340 340 340 340 340 340 340 339 338 337 337 338 338 337 337 336 337 337 337 338 336 335 335 335 333 332 331 330 331 331 330 329 329 331 335 336 336 336 336 336 336 335 333 332 332 331 331 331 331 331 330 330 327 327
349 350 346 346 342 333 329 327 326 326 324 324 323 323 325 328 329 331 331 332 333 334 334 335 336 337 338 339 339 339 340 340 340 340 341 341 341 341 340 339 335 333 336 338 338 337 337 336 337 337 337 334 334 335 334 334 331 329 328 328 328 326 326 330 334 336 336 336 336 336 335 335 335 333 331 331 330 330 329 329 330 330 329 327 327
350 350 349 347 339 332 329 327 327 327 326 325 324 323 325 326 329 332 333 334 334 334 335 335 336 336 337 338 339 339 340 341 340 340 341 341 341 341 340 340 336 332 334 337 338 337 337 337 336 337 335 332 332 334 334 333 332 330 329 327 326 325 328 333 336 336 336 337 335 335 334 335 335 332 330 330 330 329 328 327 329 330 329 328 327
350 349 349 346 337 332 330 328 328 328 327 327 326 325 326 327 328 331 333 333 332 332 333 333 334 335 337 338 339 339 339 340 340 341 341 341 341 341 340 340 337 333 333 336 338 337 336 337 336 336 335 330 329 333 333 332 332 332 331 329 328 326 329 334 336 336 336 336 335 336 335 335 334 332 330 330 331 331 330 330 330 330 329 328 326
350 348 347 345 337 333 332 330 329 328 328 327 328 328 327 327 328 329 330 330 330 331 331 331 331 334 337 337 338 338 338 339 340 340 340 340 341 340 339 339 338 335 333 333 336 337 336 337 337 336 336 332 329 331 332 333 332 332 332 331 331 328 330 335 336 336 336 336 336 336 335 335 332 331 331 331 331 332 332 331 331 330 329 328 327
349 348 347 345 337 334 333 331 329 328 328 328 328 329 328 328 328 328 328 328 329 330 330 329 329 333 336 336 335 335 336 338 339 339 340 340 339 339 339 338 338 336 335 334 335 335 335 336 336 336 336 333 331 331 332 332 332 330 331 332 332 330 330 334 336 336 336 335 336 335 335 334 331 331 332 331 331 331 331 331 331 329 329 327 326
349 346 345 344 339 336 334 332 330 329 329 328 329 330 330 329 329 328 328 329 330 331 330 330 329 332 333 331 330 330 333 335 337 338 339 339 338 339 339 337 336 335 334 334 335 334 334 334 335 336 334 333 331 331 331 331 331 330 331 331 332 331 332 335 335 336 335 335 335 335 336 333 331 331 332 331 331 330 330 330 330 329 328 327 326
348 345 344 344 341 338 336 334 333 331 330 330 332 332 332 332 332 331 330 330 331 332 331 329 328 328 326 325 327 328 331 334 336 337 338 337 337 338 337 336 336 335 334 332 331 331 333 334 334 334 332 332 331 331 330 329 330 332 332 332 332 331 333 336 334 336 336 335 335 335 334 331 330 332 331 331 331 330 330 330 329 329 328 328 327
348 346 344 344 343 339 338 339 336 334 333 334 334 334 334 335 333 332 331 332 332 330 328 326 324 324 324 326 328 328 329 333 335 336 336 336 337 337 337 335 334 334 332 329 328 329 331 332 333 332 331 330 330 330 328 328 330 332 333 332 332 331 333 335 335 336 335 334 334 335 334 331 331 332 331 331 331 330 330 329 329 329 329 329 328
348 346 344 343 343 340 340 340 338 335 336 336 335 335 335 335 333 332 332 332 330 327 326 324 324 326 327 329 329 328 329 332 334 335 335 335 336 336 335 334 334 332 328 326 327 328 328 329 330 330 330 329 328 327 327 328 331 332 333 331 331 330 331 334 336 336 335 334 334 334 333 330 330 332 331 331 330 330 330 329 329 329 330 329 327
346 344 343 343 341 341 341 340 339 337 337 337 336 336 335 334 334 332 331 331 329 325 324 325 328 329 329 330 329 328 329 330 331 333 333 333 334 335 334 332 333 329 325 325 327 327 327 327 327 327 328 328 327 327 327 329 332 332 332 332 331 331 331 334 335 335 335 334 334 333 330 329 331 332 331 331 330 330 330 330 329 329 329 328 326
344 343 341 343 341 341 341 341 340 339 339 338 337 337 335 335 334 333 332 331 329 325 326 329 330 331 331 331 330 330 331 330 331 331 331 332 333 334 332 331 330 328 325 325 327 327 327 326 327 326 326 326 327 326 327 330 332 332 332 332 331 331 333 335 334 334 334 332 333 332 328 330 332 332 331 331 330 330 330 330 330 329 329 328 326
344 344 339 341 341 340 340 341 341 340 339 338 337 337 335 336 335 334 334 332 330 325 327 330 331 332 331 331 333 335 334 333 333 333 332 331 331 330 330 329 329 327 325 325 327 327 327 327 326 326 326 326 326 326 327 329 331 332 332 331 331 333 335 336 334 333 333 331 333 330 327 331 332 332 332 330 330 329 329 330 330 329 329 328 327
343 342 337 338 340 339 340 340 339 340 340 337 336 337 336 336 336 335 334 333 329 324 328 331 332 332 331 333 338 339 336 336 337 337 336 333 330 330 330 329 328 328 327 326 326 327 327 327 326 326 326 325 326 328 329 330 331 331 331 331 332 334 334 335 334 334 332 332 332 328 327 331 332 332 332 330 329 329 329 330 330 330 329 328 328
342 339 335 337 339 338 339 339 339 339 339 338 338 339 339 338 336 334 334 334 330 329 333 335 335 335 335 337 340 340 338 338 338 337 336 334 331 330 329 329 329 329 328 328 327 327 327 326 326 325 326 326 328 329 331 332 331 331 332 332 334 334 334 334 334 334 332 331 331 327 327 330 331 331 331 330 329 329 329 330 330 331 330 328 329
341 339 336 336 337 337 338 338 338 338 337 340 339 339 341 339 335 334 334 335 333 334 335 336 338 338 338 340 340 339 338 338 336 334 334 335 332 329 329 330 329 328 329 330 329 328 327 326 325 325 328 329 329 329 330 333 333 332 332 333 334 333 334 333 333 333 332 331 329 326 327 330 332 331 331 330 329 328 327 329 330 330 330 328 328
338 338 337 335 335 337 337 337 338 338 338 340 339 338 339 338 335 334 335 334 334 334 333 335 339 339 339 339 339 338 337 337 336 335 335 336 335 332 331 332 332 330 330 333 331 330 331 330 328 328 330 330 329 329 329 331 333 333 333 333 334 333 333 332 333 333 333 332 328 325 327 329 331 331 331 330 330 329 327 329 330 330 329 327 327
338 337 337 336 336 336 337 338 338 339 339 339 338 337 338 338 335 335 336 335 335 335 334 336 339 339 338 338 338 338 337 337 337 337 336 336 335 334 334 334 335 334 333 334 332 332 334 333 331 331 331 330 330 330 329 331 333 333 333 333 333 332 332 332 333 333 333 332 327 324 326 329 331 331 331 331 330 330 328 328 329 329 328 327 327
337 336 336 337 336 336 337 338 338 338 338 337 338 338 338 339 336 336 338 336 335 337 337 337 337 338 338 338 338 337 337 337 337 337 335 335 335 334 334 335 335 334 335 335 332 332 333 332 332 330 330 330 330 330 329 331 332 332 333 333 333 333 332 332 333 334 333 332 328 324 325 328 331 331 331 331 330 330 329 328 328 327 327 326 327
336 336 336 337 337 337 337 337 337 337 337 337 337 337 337 337 336 337 338 336 336 337 337 337 336 336 338 339 338 337 337 337 337 336 336 335 334 334 334 335 335 335 335 335 333 331 331 331 332 330 329 330 329 329 328 329 331 332 333 333 333 333 333 334 335 334 333 333 329 324 324 327 329 331 331 331 330 330 329 329 328 328 327 325 326
336 336 336 336 336 336 337 336 336 336 335 334 335 335 335 336 336 337 336 333 335 335 335 336 335 336 338 338 338 338 338 338 338 337 338 337 335 335 335 335 336 335 335 335 335 332 331 332 331 330 329 330 330 329 327 328 330 332 333 333 333 334 335 335 335 335 333 333 331 325 323 325 327 329 330 330 330 330 330 330 329 328 328 325 325
336 336 336 336 334 335 336 335 335 335 334 333 335 336 335 336 337 337 334 331 332 333 333 335 336 337 339 338 338 339 339 338 338 338 338 338 336 336 335 334 336 337 336 335 335 334 332 332 331 330 330 330 330 329 328 328 330 332 333 332 333 333 334 335 335 335 334 333 333 328 324 324 326 327 329 330 330 329 328 329 330 329 329 327 325
336 336 335 335 335 334 336 335 334 336 335 334 336 336 336 335 336 335 334 332 332 332 333 336 338 338 339 339 339 339 338 338 338 338 337 337 336 336 335 335 336 337 336 335 336 335 333 332 331 331 331 331 331 330 328 328 330 331 331 332 332 332 333 334 335 335 334 334 333 332 328 325 325 326 326 328 329 329 328 327 329 328 328 328 326
336 337 335 334 336 335 336 335 333 333 333 332 334 337 336 335 334 333 333 333 333 335 336 338 339 339 339 339 339 338 338 338 338 338 336 337 337 336 336 337 337 336 335 335 336 335 334 334 333 332 332 332 331 330 329 329 330 331 331 332 331 331 333 334 334 335 334 333 333 333 332 330 328 326 326 326 328 329 329 328 328 329 328 329 328
335 337 337 336 335 334 334 333 331 330 332 334 335 337 338 337 335 333 333 335 337 338 338 338 339 338 338 338 338 337 337 337 337 336 336 338 338 337 338 338 337 336 336 336 335 335 334 334 333 333 333 332 331 331 330 330 330 331 332 332 332 332 332 332 333 334 334 333 331 330 332 333 332 329 328 327 326 327 329 329 330 330 330 330 329
336 336 337 336 334 332 332 334 334 334 335 336 337 338 339 338 337 336 337 338 339 338 337 338 338 337 337 337 337 337 337 336 336 336 336 338 338 338 338 337 337 337 336 336 336 335 335 334 333 333 333 332 332 331 331 331 331 332 332 333 333 333 331 331 332 334 334 334 331 329 329 329 331 331 331 329 327 326 327 329 330 331 331 331 330
336 336 336 335 332 331 332 334 336 337 337 337 337 338 338 339 338 338 338 339 339 338 337 338 338 338 337 336 335 336 337 336 336 336 336 337 337 337 337 337 337 336 335 336 336 336 336 335 333 333 334 333 333 333 333 333 332 333 333 333 333 333 332 332 332 331 333 334 333 332 330 327 327 329 330 331 330 328 327 327 328 329 330 331 331
336 337 337 335 333 334 335 336 336 337 338 336 337 338 339 339 339 339 339 339 338 337 336 337 337 337 336 335 334 335 336 336 336 336 337 337 337 337 337 337 337 336 335 335 336 336 336 335 334 334 334 334 333 333 332 333 333 333 333 333 333 332 332 332 331 330 330 332 332 333 333 331 329 328 328 331 333 332 329 327 326 327 328 329 329
336 337 338 337 335 335 336 337 337 337 338 337 338 340 340 340 339 338 338 337 335 334 335 335 335 336 335 335 335 335 336 336 336 337 337 337 337 337 337 337 337 336 335 335 335 335 335 334 334 334 335 334 333 332 332 332 332 333 333 333 333 332 332 332 331 331 330 331 330 331 331 331 331 331 330 332 332 332 331 329 328 328 327 327 327
337 337 338 338 337 336 336 337 337 337 338 339 341 341 340 338 337 336 336 334 333 333 333 332 333 334 335 334 334 335 337 337 336 337 337 337 337 337 337 336 337 336 336 335 334 333 332 333 333 332 333 334 332 332 331 331 332 331 332 332 332 332 332 331 331 330 330 330 330 329 329 330 330 331 331 332 332 332 333 332 331 331 330 329 328
338 337 339 338 337 336 336 337 337 339 340 341 341 340 338 336 336 335 334 333 332 332 331 331 332 333 334 334 334 335 336 337 337 337 337 336 336 336 336 336 336 336 336 335 332 330 328 330 331 329 331 333 333 332 331 331 331 331 331 331 331 331 331 330 330 329 329 329 328 328 329 329 329 331 331 332 331 332 333 333 332 331 330 330 329
339 338 338 338 337 336 336 335 337 340 341 341 340 338 337 336 335 333 332 331 330 330 329 330 331 331 332 334 335 335 335 336 336 336 336 335 336 335 335 335 336 336 335 334 332 330 327 329 330 329 330 333 333 333 332 332 332 332 331 330 330 331 330 330 330 329 329 328 327 327 328 328 329 330 330 331 331 332 332 332 332 330 330 331 330
339 338 338 338 337 337 336 335 337 340 340 340 340 338 336 335 334 331 330 329 329 329 329 330 331 331 332 335 335 335 335 335 336 335 335 335 335 335 334 334 335 335 335 333 331 331 329 330 331 330 332 333 333 333 332 332 333 332 331 330 330 330 330 331 330 328 327 326 326 326 325 326 327 328 328 329 330 329 331 331 331 331 331 330 330
339 339 339 339 337 337 336 336 338 340 341 340 338 337 334 333 331 329 328 328 327 328 328 331 331 331 331 333 334 333 333 334 334 334 335 334 334 335 334 334 334 334 334 333 331 331 331 331 332 332 332 333 333 332 332 332 331 331 331 330 330 329 330 330 328 327 326 325 325 324 325 323 323 323 323 326 328 328 329 329 330 331 331 330 330
339 339 338 337 337 338 337 338 339 340 341 340 336 335 335 333 332 330 328 326 327 328 330 330 330 330 330 331 333 333 333 333 333 333 334 335 335 335 334 334 333 333 333 333 332 331 331 331 332 332 332 332 331 332 331 331 330 330 330 330 329 328 329 328 326 325 325 325 323 324 324 323 322 321 320 323 326 326 327 328 329 330 331 331 331
337 337 337 335 336 337 337 338 340 340 340 340 337 336 335 333 331 331 329 326 327 329 331 330 330 329 330 329 330 332 333 333 333 333 333 333 334 334 333 333 333 333 333 333 333 332 331 331 332 332 333 332 331 331 331 331 331 330 329 330 328 327 329 328 325 324 324 323 322 322 322 322 322 322 322 323 325 326 327 328 329 330 331 331 330
333 336 338 338 338 337 337 339 340 340 340 339 337 335 334 332 331 329 328 326 327 329 329 329 329 328 328 328 328 329 330 331 332 331 331 332 333 333 332 331 332 332 332 333 333 333 332 332 331 331 331 331 331 330 330 330 331 331 330 330 328 327 328 327 325 325 323 322 321 321 321 321 321 321 321 323 324 325 326 326 328 328 329 330 330
333 336 337 337 338 337 337 338 338 339 339 337 335 335 334 333 331 329 328 327 327 327 327 328 327 326 326 327 327 327 327 328 329 328 328 329 329 330 329 329 329 330 330 331 330 331 331 331 331 331 331 331 331 331 330 330 330 331 331 331 330 329 327 327 325 324 322 321 319 319 319 319 319 319 320 321 322 321 322 323 324 325 326 328 328
334 335 334 334 334 335 336 335 334 335 336 335 334 335 334 332 331 329 328 326 325 325 326 326 325 324 324 324 325 327 326 326 327 327 327 326 326 326 326 326 325 326 327 328 328 328 327 328 330 331 330 330 331 331 330 330 330 331 331 331 330 330 328 327 326 324 322 320 318 318 318 318 318 318 318 319 320 319 319 319 321 321 322 324 325
334 333 332 331 331 333 335 334 332 333 334 334 334 336 334 332 331 329 327 326 325 325 325 325 324 322 323 322 323 325 326 326 326 326 326 326 325 325 325 325 325 324 325 326 326 327 327 328 331 331 330 330 330 331 330 330 330 331 330 330 329 329 329 328 327 325 322 319 317 316 317 317 317 317 317 317 318 318 317 317 318 318 319 320 321
331 329 329 328 329 332 334 332 330 330 332 333 333 334 334 332 330 328 328 327 325 324 324 323 323 323 323 323 322 323 325 326 325 325 326 325 325 324 325 326 325 323 324 325 326 327 327 328 330 330 330 330 330 330 330 329 330 330 330 329 329 328 327 328 328 325 322 319 316 316 317 317 317 316 315 316 316 317 316 316 317 317 317 317 318
328 328 328 327 327 330 331 330 328 328 330 331 331 331 332 331 329 328 328 327 325 324 323 323 323 323 323 323 323 322 323 324 325 325 324 324 324 324 325 325 325 324 324 325 326 326 327 328 329 330 330 330 330 330 329 329 329 329 329 328 328 326 325 325 325 323 320 319 317 317 316 317 317 316 314 313 314 314 314 315 315 315 316 316 316
326 327 327 327 327 327 328 327 326 326 328 329 329 329 329 330 330 329 328 327 326 324 323 323 322 322 322 322 322 322 323 324 324 323 323 323 323 324 325 324 323 324 324 325 325 326 327 328 330 330 329 329 329 329 329 329 329 328 327 326 325 323 322 321 321 319 318 318 318 317 317 316 316 316 314 312 312 312 312 312 312 313 313 314 314
Wind_Speed
22 25 25 30 31 29 27 26 26 25 25 25 26 27 28 28 28 28 29 28 27 26 26 27 27 24 22 20 19 18 18 16 16 15 15 16 17 17 17 17 17 17 17 16 16 16 15 13 13 13 12 11 12 14 14 14 14 14 13 12 13 13 13 14 14 13 13 15 15 14 14 15 14 13 13 13 14 13 12 13 13 13 14 15 14
25 27 27 31 31 29 28 27 26 26 26 26 26 26 27 28 28 29 29 28 26 25 26 27 25 22 20 20 18 17 17 16 15 14 14 15 16 18 18 17 17 16 16 16 15 15 15 14 13 13 12 12 12 13 14 14 14 14 13 12 13 13 12 13 13 12 12 13 13 13 13 14 13 12 12 13 13 13 13 13 14 14 14 14 14
28 27 27 32 31 30 28 27 27 27 27 27 27 26 26 28 28 29 29 27 26 26 26 25 23 20 20 19 18 18 17 16 15 14 14 14 16 18 18 18 17 16 16 15 15 14 15 14 13 12 12 12 12 13 13 13 14 15 14 11 13 13 12 12 13 12 12 12 12 12 13 13 13 12 13 13 13 14 14 13 14 15 15 15 15
29 26 27 32 31 31 29 29 28 28 28 28 28 27 27 28 29 30 29 27 26 26 25 23 20 20 20 19 18 18 17 16 15 14 14 14 15 17 19 18 17 16 16 15 14 14 14 14 14 12 12 12 12 12 13 13 12 15 14 11 12 13 12 12 12 11 12 12 12 13 12 12 12 12 13 13 13 13 13 12 14 16 16 15 15
28 26 27 31 29 30 30 30 29 29 29 29 29 29 29 29 30 30 28 26 25 24 23 22 20 20 19 18 18 17 16 15 14 14 14 15 16 17 18 17 17 16 16 16 15 14 14 14 14 13 12 12 12 12 13 12 12 14 14 12 11 11 11 11 11 11 13 12 11 11 10 11 11 12 12 12 13 13 14 13 14 16 16 15 15
27 26 28 28 27 28 31 31 30 30 30 29 30 30 30 30 30 29 27 25 24 24 23 21 20 20 18 18 17 16 15 14 14 13 14 16 17 17 17 16 16 16 16 16 15 15 15 14 14 13 13 12 11 12 12 12 12 13 12 12 10 9 10 10 11 12 14 13 10 9 9 10 10 11 11 12 12 12 13 14 13 15 15 13 14
27 26 27 27 25 28 31 32 31 31 30 29 29 31 31 30 30 28 26 25 24 23 22 21 20 19 18 18 16 16 15 14 14 13 14 16 16 16 16 16 15 15 15 16 16 16 15 15 14 14 13 11 11 13 12 12 13 12 11 11 10 10 10 10 11 12 11 10 8 8 8 9 9 10 11 11 11 11 13 13 12 13 13 13 13
26 26 27 25 25 30 33 32 32 31 30 30 29 30 31 29 28 27 26 25 24 23 22 22 20 19 18 17 16 15 15 14 14 13 14 15 16 16 15 15 15 14 14 15 15 15 15 15 15 14 13 11 12 13 12 12 12 12 12 11 10 11 10 10 12 12 10 7 6 8 8 8 9 10 10 10 11 11 12 12 12 12 13 13 12
25 25 27 25 26 32 33 32 32 31 31 30 29 30 29 29 28 27 27 26 25 24 23 22 20 19 18 16 15 14 14 14 14 13 13 14 15 16 16 15 14 15 14 14 14 15 15 15 15 15 14 12 13 14 13 12 12 12 12 11 11 11 10 11 11 10 8 6 7 7 8 8 9 10 10 10 10 9 10 11 13 13 12 13 13
24 25 26 25 29 33 33 32 32 31 30 30 29 29 29 29 28 27 26 26 25 23 22 21 20 18 17 16 14 14 14 13 14 13 13 13 14 15 16 15 14 15 14 13 13 14 14 14 15 14 13 13 14 14 12 12 11 12 12 11 11 11 11 12 11 8 6 6 7 7 8 10 9 10 10 9 10 9 9 10 12 12 12 13 13
23 24 24 25 31 33 33 32 31 31 31 30 30 29 29 28 27 27 26 25 24 23 21 20 19 18 17 15 14 14 13 13 14 14 13 12 13 14 15 15 13 14 14 13 13 12 12 13 14 13 13 14 15 14 12 11 11 11 11 10 11 11 11 11 10 6 5 6 7 7 8 9 9 10 10 10 10 9 9 10 12 11 11 13 13
22 22 21 26 33 33 32 32 31 31 31 31 30 29 29 27 26 26 25 24 23 21 20 20 19 18 16 15 14 13 13 13 13 13 13 12 13 14 14 13 12 12 13 13 12 11 11 11 12 12 12 13 14 13 11 10 10 9 9 9 9 9 10 10 7 3 5 7 7 7 7 8 9 10 10 10 9 8 10 11 12 11 10 12 13
21 19 20 27 32 32 32 32 31 31 31 30 29 28 28 27 26 26 24 23 22 21 20 19 19 17 16 14 14 13 12 12 12 12 12 13 13 12 13 13 12 11 11 12 12 10 10 10 10 10 11 11 11 10 9 9 9 8 7 6 7 8 9 10 6 4 5 6 7 7 7 8 9 10 10 9 8 8 10 10 10 9 9 11 13
19 16 20 28 31 32 32 32 32 32 31 30 28 27 27 27 26 25 23 22 21 20 20 19 18 17 15 14 13 13 12 11 11 11 10 13 13 12 13 13 11 11 11 10 11 10 9 9 9 8 8 9 10 8 8 8 8 6 5 5 5 6 8 8 5 4 5 6 6 7 8 8 9 10 9 9 8 8 9 9 9 9 9 10 13
17 15 20 28 30 31 32 32 33 32 31 29 28 26 25 25 24 22 21 21 20 20 19 18 18 16 14 14 13 13 12 11 11 10 10 11 12 11 11 12 12 10 10 10 9 9 8 8 8 8 8 8 8 8 7 7 6 5 5 6 5 6 7 5 2 4 5 6 6 6 8 8 10 10 8 8 8 8 8 8 8 9 9 10 11
14 14 19 27 30 30 31 32 32 31 30 28 27 25 24 23 21 20 18 19 19 18 18 17 16 15 13 13 13 12 12 11 11 10 10 10 10 10 9 11 12 10 9 9 8 8 8 8 8 8 8 8 8 7 7 6 5 5 5 6 5 6 8 5 2 4 4 5 6 6 8 9 10 9 7 7 7 7 7 7 8 9 10 9 9
13 14 19 27 30 32 31 31 32 31 30 28 26 26 24 22 20 19 18 17 16 17 17 16 15 14 13 13 12 12 12 11 11 11 10 10 9 9 9 10 10 9 8 8 8 8 8 8 8 7 8 9 8 7 6 5 4 5 5 6 6 6 8 7 3 4 5 6 5 6 7 8 9 8 6 7 6 6 7 7 7 8 9 7 7
12 12 18 22 25 32 31 30 32 31 29 28 26 25 23 22 20 20 19 16 15 16 16 16 15 14 13 13 13 12 13 11 11 11 10 10 9 9 10 9 9 9 9 8 8 7 7 8 7 6 7 8 8 7 6 5 4 5 6 7 6 5 7 7 4 4 6 6 5 6 6 6 8 7 6 6 6 6 6 6 7 8 7 5 7
10 10 14 16 20 28 30 29 30 28 28 28 26 25 23 21 19 19 18 16 15 16 15 15 14 14 13 13 13 12 12 11 11 10 10 10 9 9 9 9 9 9 8 9 8 7 7 7 6 5 5 6 8 8 7 5 5 5 6 7 6 5 6 6 3 5 6 5 5 5 5 6 8 6 6 6 5 5 5 6 7 7 6 6 8
9 8 10 12 16 21 27 29 27 25 25 27 26 25 23 19 19 18 16 16 17 15 15 14 14 13 13 12 12 12 11 10 10 9 10 9 9 9 8 8 9 9 9 9 9 8 8 7 7 6 6 6 8 9 8 5 4 5 5 6 6 5 3 3 3 4 5 5 6 5 5 8 8 6 5 5 5 5 5 5 5 6 6 6 7
9 6 6 10 14 16 22 27 25 22 23 26 25 24 21 18 18 17 15 17 16 14 14 14 14 13 12 13 12 10 10 9 9 9 9 9 9 8 8 8 8 8 9 9 9 8 7 6 6 7 6 6 8 9 9 6 4 4 6 6 5 4 2 3 4 4 5 5 6 4 5 9 7 5 5 5 5 5 5 4 4 5 5 6 6
9 7 13 14 17 16 18 25 26 23 23 25 24 22 19 18 17 16 15 15 14 14 14 13 13 12 12 11 10 8 8 8 8 9 9 9 8 8 8 8 8 8 8 9 8 8 7 6 5 6 6 7 8 8 8 7 5 5 7 7 5 4 3 3 3 3 4 5 5 4 5 9 6 4 5 5 4 4 4 4 4 4 5 5 4
10 12 18 17 17 16 17 24 27 23 22 23 21 19 17 18 17 16 15 13 13 12 12 12 11 11 11 9 8 7 7 7 8 9 9 9 9 9 9 8 8 7 7 8 8 8 7 7 6 6 7 7 7 6 7 7 6 6 7 7 5 4 4 4 3 3 4 5 5 3 5 8 6 4 4 4 4 3 4 4 3 3 5 5 4
11 13 16 15 15 18 19 21 23 22 22 20 18 18 18 19 18 17 15 14 14 11 11 12 9 9 9 8 7 7 7 6 8 9 9 8 8 8 8 8 8 7 7 7 8 8 8 7 6 6 6 5 5 5 6 6 6 6 6 6 5 5 5 3 3 3 4 6 4 3 5 7 5 5 3 4 4 3 4 3 2 3 5 5 4
12 13 14 15 16 18 18 19 22 21 20 17 17 19 19 19 19 17 15 15 15 13 13 11 9 9 8 7 7 7 8 8 8 7 7 7 7 8 8 8 7 8 8 6 7 8 8 8 7 5 4 4 4 4 5 5 5 5 5 5 5 5 5 4 3 3 5 5 4 4 6 6 5 4 4 4 4 4 4 4 2 4 5 5 4
13 13 14 15 20 19 17 20 22 19 17 17 18 18 18 18 19 18 14 14 15 13 12 10 8 9 8 7 7 8 8 8 8 6 6 7 8 8 7 7 7 7 7 6 6 8 7 7 7 5 5 4 5 5 5 6 5 4 5 5 5 5 5 5 4 3 5 5 5 6 5 5 5 4 4 4 3 4 4 5 3 3 5 5 4
13 14 14 15 19 19 16 18 20 19 18 18 17 15 14 14 16 16 13 14 15 12 10 8 8 9 9 8 7 8 8 7 7 7 7 7 7 7 6 6 7 6 6 5 5 6 6 6 6 5 5 5 5 5 6 7 6 5 4 4 5 6 5 4 4 4 6 6 5 6 5 5 5 3 4 4 3 3 3 4 3 2 3 4 3
13 15 15 15 17 17 16 18 19 19 19 20 19 15 14 13 13 14 12 14 15 12 9 7 9 10 9 8 8 8 8 7 7 8 8 7 6 5 6 7 6 6 6 5 4 5 5 5 6 5 5 5 5 5 6 8 7 5 5 4 5 6 5 4 4 4 5 6 5 6 6 5 5 4 4 4 2 2 3 2 3 2 3 4 3
14 15 16 16 17 17 16 19 21 19 19 21 20 18 16 14 15 15 12 14 15 12 9 8 10 9 8 9 8 8 8 8 8 9 9 8 6 5 6 7 7 7 7 6 5 5 5 5 6 5 5 5 5 5 6 7 7 6 5 5 5 5 5 4 3 4 5 6 6 5 6 7 5 4 4 5 3 2 3 2 2 2 2 3 2
14 16 17 17 19 19 16 19 22 19 19 21 18 17 18 16 16 15 14 16 14 11 11 10 10 9 8 9 8 8 7 8 8 8 8 7 6 5 6 7 8 9 8 6 5 5 5 5 6 5 5 4 4 5 6 8 8 6 6 5 5 4 4 4 3 3 4 6 6 5 6 6 6 5 4 4 3 4 4 3 2 2 2 1 2
14 17 18 17 19 20 17 19 23 20 20 21 17 15 17 17 16 16 15 15 12 11 12 11 10 9 8 9 8 7 6 7 7 7 8 7 7 6 7 8 9 8 7 6 6 5 5 5 5 5 5 4 4 4 6 8 8 6 6 5 4 4 4 3 3 3 4 5 6 5 5 5 5 4 4 3 2 3 4 4 4 3 2 1 1
14 16 17 17 18 20 17 18 24 24 23 23 18 14 15 16 16 16 14 12 12 12 13 10 9 9 8 8 8 8 7 7 7 7 8 8 8 8 7 8 8 8 7 7 7 6 5 5 5 5 5 4 4 4 4 7 7 5 5 4 4 4 4 3 3 2 3 4 5 5 4 3 3 2 2 3 2 2 3 4 5 4 3 2 2
14 15 15 14 17 21 20 19 23 24 22 20 17 14 13 13 14 14 13 12 13 12 11 9 8 8 8 8 9 8 9 11 10 8 9 8 8 8 7 8 8 8 8 8 8 7 6 6 6 5 5 4 5 4 4 5 5 4 4 4 5 5 4 4 3 3 3 3 4 5 4 3 1 1 1 1 1 2 2 3 3 4 4 4 2
14 15 13 13 18 23 22 19 18 20 18 15 14 13 12 12 12 12 13 13 12 10 8 8 9 9 9 9 9 9 9 11 10 8 8 7 7 7 7 7 8 9 10 10 9 7 7 8 8 6 5 4 4 4 4 4 4 4 4 4 5 4 3 3 3 3 3 3 3 5 5 4 2 1 1 2 1 1 2 3 2 2 4 4 3
14 15 14 15 19 22 19 14 15 16 15 14 13 12 12 12 11 11 11 11 10 8 7 8 9 9 9 8 8 9 9 9 9 8 8 7 7 7 6 6 8 10 10 10 9 8 8 8 8 8 6 4 4 4 3 4 3 4 4 3 4 4 3 3 2 2 2 3 2 3 4 5 4 3 2 1 2 1 1 2 3 2 2 3 2
15 15 14 16 18 18 13 11 14 14 14 14 13 12 11 11 10 10 9 9 9 8 8 8 8 7 7 7 8 9 9 9 9 9 8 7 7 6 6 6 8 9 10 10 9 9 9 8 8 8 6 5 5 4 3 3 3 4 4 3 4 4 3 3 2 2 2 2 2 1 1 3 3 4 3 2 2 4 3 3 3 3 3 2 1
15 14 14 15 16 15 12 11 13 14 13 13 12 10 10 10 9 8 8 8 7 7 7 7 6 6 5 6 7 7 8 9 9 9 8 7 6 6 6 6 7 8 9 10 10 8 8 8 8 7 6 5 5 4 4 3 3 3 3 4 4 4 3 3 3 2 2 2 1 1 0 1 2 2 2 2 2 3 5 5 4 3 3 3 3
15 14 13 14 14 13 12 11 11 12 11 11 10 8 8 8 7 7 6 6 4 3 3 3 3 4 4 4 5 7 8 8 9 9 8 7 6 5 5 6 7 8 9 10 9 9 9 9 8 8 7 6 5 4 5 4 4 4 4 4 3 3 3 3 2 2 2 1 1 1 1 1 0 0 1 1 1 2 4 6 5 3 1 2 3
14 14 12 12 12 11 10 9 9 10 9 8 8 7 8 7 6 6 6 4 3 3 3 2 2 3 4 4 5 6 7 8 8 8 7 7 6 6 5 6 6 7 8 9 11 10 12 11 9 8 8 7 5 5 4 4 5 5 5 4 3 3 3 2 2 2 2 2 2 1 1 1 1 2 2 1 1 1 3 4 4 1 0 2 3
12 13 13 12 12 11 9 8 8 8 8 8 9 9 8 7 6 6 5 5 4 4 3 3 3 3 4 5 5 6 7 7 7 7 7 7 6 6 6 6 6 7 7 9 14 13 12 11 9 9 9 8 6 6 6 6 6 6 6 5 4 4 3 3 3 3 2 2 2 2 2 2 2 3 4 4 2 2 3 4 3 2 2 4 5
12 13 14 13 13 12 9 8 8 9 9 10 10 10 9 8 7 5 5 5 5 4 4 4 4 5 6 6 6 6 7 7 7 7 7 7 7 7 7 7 6 6 5 7 13 13 11 9 8 8 8 7 7 7 7 7 7 7 6 6 5 4 3 4 4 3 3 2 3 3 3 3 3 4 5 5 4 3 3 3 4 4 3 3 5
13 14 14 12 12 12 10 9 9 10 11 12 11 9 8 7 6 6 5 5 5 4 5 5 5 6 8 8 7 7 7 6 7 7 7 7 7 7 7 7 5 5 5 6 11 14 11 7 7 8 7 7 6 6 8 8 8 7 7 7 6 4 4 4 4 4 3 3 3 3 3 4 4 4 5 5 4 4 3 3 3 3 3 3 3
11 12 12 12 12 11 11 11 12 12 12 12 11 9 9 9 8 8 6 5 6 6 6 6 6 7 7 8 8 8 7 7 7 7 7 6 6 7 7 7 6 5 6 6 9 13 13 9 7 8 8 7 6 6 8 7 7 7 7 5 4 4 5 5 6 6 5 5 4 3 3 4 4 4 5 5 4 4 4 3 3 3 3 3 2
6 10 12 14 15 16 16 14 13 12 12 10 10 11 12 11 11 10 8 7 8 8 8 8 7 8 7 8 9 10 9 8 8 7 7 6 5 6 6 6 6 5 5 6 7 9 11 11 8 7 8 8 7 7 7 7 7 7 6 4 5 5 4 5 8 7 6 6 5 4 4 5 5 4 5 4 3 4 4 4 4 4 3 3 3
11 15 18 17 16 14 13 12 9 7 8 10 10 12 13 12 12 11 9 9 9 8 8 8 8 8 8 7 8 9 9 9 9 8 8 7 6 5 5 5 5 5 5 5 5 6 8 9 8 8 8 7 7 7 7 8 8 8 6 3 4 4 3 7 9 7 5 5 5 6 6 6 5 5 5 5 5 5 6 6 6 6 5 5 4
18 22 20 14 13 13 13 11 9 7 6 9 11 11 11 12 12 10 8 8 8 7 7 8 7 7 6 6 6 6 7 8 8 8 8 8 7 6 4 4 4 4 4 4 5 5 6 7 8 9 8 7 7 8 8 8 8 8 7 4 1 2 6 10 7 5 5 6 6 6 7 6 6 6 6 7 6 7 7 7 8 8 8 8 7
22 22 18 17 14 14 15 11 10 10 8 10 12 10 10 10 9 8 6 6 6 7 7 7 6 6 6 6 6 6 6 7 8 8 8 8 7 6 4 3 3 3 4 4 5 5 5 6 7 8 8 8 8 8 8 8 8 8 7 4 1 2 7 8 5 5 6 5 6 7 8 8 8 8 8 8 8 9 8 8 8 9 9 10 10
12 10 13 17 16 15 16 13 12 12 12 13 12 9 9 10 8 7 7 6 7 8 8 7 6 6 6 6 6 7 7 7 8 8 9 8 6 5 4 3 3 3 4 4 5 5 5 6 6 6 6 7 7 7 7 8 8 7 6 5 3 4 5 4 3 6 6 5 7 8 9 9 9 9 9 9 9 9 9 9 9 9 10 10 11
13 11 9 9 12 13 15 13 11 12 13 14 12 8 8 10 8 7 7 7 8 9 9 8 7 7 7 7 6 7 7 7 7 8 8 7 6 5 5 5 4 4 4 4 5 5 5 6 7 6 6 6 5 5 7 7 6 7 7 6 6 6 6 4 4 6 6 6 6 7 9 9 9 9 8 8 9 8 9 9 8 9 10 10 10
17 15 11 6 6 6 9 10 9 9 10 13 13 9 8 9 7 7 8 8 9 9 9 8 7 7 7 7 6 6 7 7 7 8 7 7 6 5 6 6 6 5 4 5 5 5 5 6 6 5 5 5 4 5 6 6 6 7 8 7 7 7 7 6 6 6 6 6 6 7 9 9 8 8 8 8 8 8 9 9 9 9 9 9 9
20 20 19 16 10 5 6 7 6 6 7 10 12 11 10 9 6 7 8 8 9 9 9 9 8 8 8 7 7 6 7 8 8 8 7 7 6 7 8 8 6 5 5 5 5 5 5 5 6 6 5 5 5 5 5 5 6 7 7 7 7 6 6 6 6 6 5 6 7 7 9 9 9 9 7 7 8 8 8 8 9 9 9 9 9
Wind_Direction
159 159 157 165 163 160 161 159 159 158 159 157 157 157 160 164 164 161 159 159 155 153 151 150 147 146 144 143 144 142 143 143 145 146 144 137 134 136 135 134 131 131 131 131 130 127 126 126 123 121 119 117 117 116 115 111 108 108 110 110 109 107 109 108 105 104 100 95 92 93 94 94 91 90 88 89 83 72 78 73 70 71 72 78 80
160 157 156 163 160 159 159 157 158 156 156 154 155 155 158 162 161 160 159 158 154 152 149 149 148 146 145 144 144 143 143 143 144 142 140 136 136 139 138 136 136 136 134 134 133 132 130 128 125 123 121 117 119 119 119 115 114 114 109 111 117 118 117 114 110 106 104 100 98 98 94 93 91 88 87 88 74 69 80 73 69 69 75 83 81
154 153 154 161 159 159 159 157 156 153 153 151 152 152 155 158 159 159 157 154 150 148 147 149 148 146 145 144 144 144 144 143 142 139 137 136 138 140 140 140 140 139 136 137 136 136 132 130 129 126 123 121 124 123 124 121 122 125 114 109 122 126 125 117 113 111 106 101 99 97 93 92 89 87 85 83 77 75 78 76 75 72 78 86 82
152 151 152 159 159 159 158 157 155 151 150 148 149 148 151 154 156 156 153 150 148 148 149 149 148 146 145 145 144 144 146 145 143 140 138 136 139 141 141 141 141 141 139 139 137 136 132 131 131 128 125 123 127 126 127 123 124 132 126 119 118 120 124 117 116 113 102 98 96 92 92 92 87 86 85 82 81 78 76 78 77 75 81 86 83
150 149 151 156 157 159 158 155 153 151 149 148 148 148 150 152 154 154 153 151 149 150 150 149 146 146 145 146 146 147 149 146 144 141 138 136 138 140 141 140 141 142 140 140 138 138 135 135 134 132 130 128 132 130 128 123 124 132 132 134 125 117 123 124 124 114 101 100 99 95 96 95 90 87 85 82 80 76 74 73 71 76 81 82 82
148 147 150 151 153 158 158 154 152 150 148 148 148 149 150 152 155 155 154 151 150 151 149 147 146 148 148 149 148 149 150 146 146 141 137 135 135 138 138 139 141 142 141 141 140 141 140 140 139 138 136 135 138 132 129 126 125 128 128 135 134 125 131 134 125 110 95 89 91 101 101 98 96 91 85 82 80 79 77 73 73 77 78 79 80
147 146 149 151 153 158 158 154 152 150 149 149 149 150 152 153 155 154 153 151 150 150 149 149 150 152 151 150 150 150 150 148 147 143 139 135 133 136 139 140 141 142 143 143 142 143 143 144 142 141 139 139 141 132 128 129 128 128 125 129 131 132 138 134 118 104 90 81 88 101 100 99 99 95 92 86 82 82 78 77 75 72 73 77 79
151 148 150 152 155 160 157 154 151 149 149 149 150 150 151 152 153 153 151 151 150 151 151 152 153 154 152 151 152 151 151 151 149 148 146 141 138 138 138 138 139 141 143 144 143 143 145 146 145 144 143 142 139 132 129 128 128 129 129 128 128 136 136 126 112 95 84 85 96 97 95 97 97 98 98 91 88 84 74 72 70 70 73 75 77
156 150 152 153 157 160 155 153 150 148 149 148 149 150 151 151 152 151 152 152 151 152 152 154 155 154 153 152 154 155 154 154 153 151 149 147 145 142 139 135 134 137 141 143 143 144 145 148 147 147 147 145 140 135 133 129 129 132 133 129 127 134 130 118 106 87 79 94 97 93 95 95 95 100 100 97 92 83 77 76 73 72 73 73 76
159 155 155 154 156 158 154 153 150 148 148 147 148 149 151 152 153 152 153 153 152 153 153 155 156 155 153 154 156 158 158 158 155 150 148 147 144 143 140 137 133 130 136 141 142 143 145 149 149 148 150 151 145 141 139 134 131 131 130 126 126 130 125 110 94 81 86 99 89 87 100 97 93 98 104 102 91 87 97 98 84 75 71 73 76
162 158 154 151 155 156 154 153 150 148 148 148 148 150 153 155 155 154 154 154 153 153 154 156 155 156 154 156 159 159 160 159 156 150 149 147 144 144 142 141 135 127 131 138 141 142 144 148 148 148 150 152 150 147 145 140 133 128 126 123 125 127 122 102 85 87 98 96 90 92 97 88 88 99 103 98 92 94 94 87 84 79 74 73 75
163 158 151 149 154 155 155 154 152 151 149 149 150 152 155 156 155 153 153 153 154 155 157 158 157 157 157 159 160 159 157 157 156 151 150 150 148 146 143 141 134 126 129 136 139 140 144 145 146 149 150 154 155 151 147 144 140 130 125 125 124 126 119 97 87 113 103 95 96 95 90 82 90 100 101 98 94 92 83 80 86 85 74 72 75
162 157 151 148 154 157 157 156 153 153 151 151 152 154 155 154 155 155 155 154 156 158 160 161 159 159 159 161 158 155 153 152 153 152 153 149 147 145 144 141 132 126 123 131 138 138 141 143 147 151 152 155 154 151 147 147 148 138 132 134 128 128 118 99 98 127 104 98 97 92 89 86 97 102 101 101 94 86 85 85 86 82 72 71 78
161 155 146 146 156 160 159 158 155 154 153 154 153 153 153 154 156 157 159 158 159 160 162 164 163 161 160 160 156 153 151 151 151 150 150 144 143 145 144 138 130 126 121 125 135 138 143 144 145 151 153 153 151 151 153 155 156 154 157 157 145 134 117 101 106 122 105 100 97 92 93 93 100 103 104 104 95 88 91 88 77 76 74 74 81
162 149 141 147 158 161 160 158 154 154 155 156 153 150 152 154 155 157 160 160 163 163 164 164 164 162 158 158 155 154 151 150 149 147 146 140 142 146 145 139 130 125 124 126 132 138 144 145 145 152 156 154 154 151 154 156 155 164 175 172 158 137 121 110 114 114 104 100 96 90 93 98 100 99 103 106 99 89 92 91 79 78 78 74 77
163 148 144 152 158 160 161 156 152 154 158 157 152 150 152 155 152 155 161 163 166 167 164 164 165 162 156 155 150 151 150 148 146 145 145 141 143 146 141 139 135 128 128 131 136 143 147 150 152 162 166 164 161 152 151 147 141 159 175 173 157 136 123 114 112 109 100 96 95 91 91 101 105 101 99 104 105 95 91 91 85 79 78 77 71
158 153 150 155 159 161 160 153 152 157 161 159 155 155 155 156 149 149 161 166 170 170 165 164 164 159 154 149 143 146 149 148 146 145 146 143 142 140 136 138 138 132 134 134 139 154 160 162 162 168 172 174 169 157 159 151 133 144 166 167 151 143 124 103 97 102 92 90 90 88 92 105 108 103 100 102 105 99 92 87 85 80 82 81 58
161 155 147 154 160 162 158 150 154 161 163 159 157 156 156 154 146 147 158 166 173 173 166 163 159 153 147 142 142 143 146 148 148 148 147 144 142 137 134 134 133 130 134 134 140 156 158 160 161 165 172 177 170 159 160 156 137 136 156 161 151 151 122 96 94 99 92 90 87 84 93 113 110 102 102 100 99 97 94 86 86 86 86 67 45
167 153 139 151 152 153 154 151 156 164 163 159 157 156 156 151 147 151 157 161 172 177 166 157 152 144 140 137 139 139 141 147 148 148 145 142 139 136 134 132 134 131 131 134 139 146 141 139 137 141 156 168 165 156 155 154 145 139 155 162 160 150 111 89 97 101 96 87 86 85 96 122 113 102 102 99 94 92 89 90 89 85 79 50 50
134 139 136 144 147 146 148 151 158 166 162 158 158 159 159 154 152 157 156 160 172 174 160 152 145 137 136 135 135 135 138 143 143 143 141 139 138 137 138 138 139 132 131 136 137 141 140 128 113 112 125 148 159 154 152 152 150 149 163 173 166 151 111 92 97 98 94 86 90 87 101 119 110 100 104 100 92 91 88 92 88 78 78 50 46
116 126 112 126 147 148 148 153 160 166 163 160 160 160 163 159 156 159 159 165 171 166 157 151 145 140 142 139 135 139 141 139 138 140 138 137 139 139 138 139 141 135 133 137 137 141 142 129 112 105 106 129 147 151 150 147 151 157 174 182 170 163 150 114 97 93 93 92 95 80 107 119 110 104 106 100 91 95 90 83 85 75 74 52 39
125 95 77 105 135 142 152 161 161 163 164 162 162 161 164 162 160 162 161 166 166 160 158 154 151 151 151 146 143 150 149 142 144 146 139 138 140 136 134 138 142 140 138 139 141 142 142 136 122 110 103 113 129 148 156 150 149 156 176 181 173 174 159 122 93 92 90 94 91 66 117 124 111 108 106 103 100 100 84 69 90 85 68 62 47
125 91 84 105 124 134 155 165 163 164 167 165 163 160 161 163 165 164 162 167 163 157 160 157 157 158 158 156 154 156 154 153 157 155 144 145 149 140 137 141 142 148 151 148 148 146 145 142 137 126 106 104 123 158 172 164 155 152 172 181 176 171 154 128 101 89 79 90 82 55 123 125 110 112 108 101 99 103 92 73 81 80 65 65 51
118 99 96 104 117 135 148 161 164 166 169 167 163 159 160 164 168 169 166 169 163 160 167 165 163 163 167 167 162 161 163 162 160 155 146 149 157 149 146 145 146 155 158 157 159 157 152 145 147 140 116 114 138 164 174 174 170 164 174 179 173 166 153 134 116 95 82 90 68 58 126 130 118 119 113 102 97 97 98 91 76 69 56 40 30
129 114 106 110 128 140 141 153 162 164 166 170 170 167 166 167 173 175 172 171 167 169 176 174 171 169 172 176 172 173 181 173 159 156 152 159 168 162 160 155 155 162 159 165 172 166 159 155 155 148 137 139 142 159 173 176 181 178 176 174 168 164 157 139 125 101 90 88 55 75 126 139 133 125 117 113 102 91 90 95 76 51 44 25 23
146 129 117 126 139 141 140 149 158 160 163 172 174 172 172 171 176 178 175 176 173 176 182 182 179 175 175 181 179 182 196 182 161 168 171 181 184 171 167 163 166 174 170 174 174 169 169 166 161 153 152 147 142 158 174 178 183 179 173 174 169 165 164 146 130 105 92 88 60 76 119 143 147 137 121 121 115 103 93 100 88 41 40 35 40
158 141 128 132 140 142 143 147 154 159 161 168 166 167 175 173 175 176 176 181 180 184 187 188 191 184 180 185 185 186 200 188 166 177 186 198 194 172 170 170 173 180 180 184 173 169 174 169 163 158 158 153 153 164 173 180 183 172 166 170 165 163 165 148 129 108 94 93 71 74 106 142 160 148 120 122 128 120 104 107 109 77 46 37 43
162 149 137 134 144 149 149 151 158 160 159 164 164 168 178 176 179 179 178 183 185 190 190 198 204 194 187 190 192 189 192 186 176 182 190 203 196 178 184 180 179 182 180 185 177 167 170 171 168 161 160 156 156 167 174 178 177 167 162 156 151 153 151 138 123 109 94 97 86 75 97 126 153 147 116 106 111 131 131 125 113 110 57 39 45
160 153 147 145 154 157 158 160 160 161 163 166 168 173 180 180 185 187 187 191 193 193 194 212 213 202 196 197 196 191 186 183 180 183 188 193 186 181 188 184 183 184 180 179 174 168 165 169 169 160 159 157 157 167 171 172 171 166 159 148 144 143 143 134 116 111 99 102 99 86 99 119 138 142 117 105 107 123 133 142 124 128 95 50 60
163 157 157 158 163 165 166 166 162 162 169 170 168 172 179 180 184 188 189 198 204 199 201 217 214 206 202 198 198 193 186 183 182 182 183 180 177 179 186 188 187 185 179 171 162 162 163 163 164 158 153 153 153 163 167 166 166 161 154 147 145 142 141 140 120 112 106 106 108 101 97 110 132 139 128 116 121 128 124 134 138 143 153 67 58
167 165 168 168 170 170 168 168 168 167 171 175 171 171 180 181 183 187 187 195 204 203 208 213 209 208 204 196 197 193 190 191 185 180 176 171 175 183 189 188 185 182 172 163 156 155 159 157 158 151 142 140 137 151 163 164 164 161 159 154 148 144 141 145 135 125 120 110 108 110 99 97 116 133 138 128 119 134 131 134 144 150 163 152 109
177 177 177 174 172 170 168 172 178 178 177 179 178 172 178 180 182 186 182 184 195 204 206 204 202 207 206 197 194 192 193 198 190 179 176 173 177 184 189 185 177 173 165 158 152 147 150 147 146 142 131 127 125 133 151 162 162 156 157 149 131 121 117 123 116 120 134 125 115 114 110 100 100 110 134 144 150 168 160 156 161 158 152 145 146
187 188 182 175 174 173 175 179 181 183 181 179 178 175 174 177 184 185 177 178 192 200 199 199 203 210 215 207 197 192 194 199 194 184 181 179 183 185 185 184 175 168 162 155 150 148 150 145 141 137 130 123 120 126 136 150 154 142 139 132 115 110 116 122 114 110 115 134 154 140 125 123 105 54 44 114 156 193 213 198 180 170 162 156 153
187 191 188 175 179 184 185 183 181 184 185 181 179 179 174 175 185 182 176 180 189 197 197 199 202 207 219 217 207 199 198 205 203 194 188 185 188 186 185 186 176 169 161 154 153 156 157 152 150 143 137 132 122 127 128 133 144 136 127 120 114 115 121 126 116 111 100 107 158 159 153 165 163 138 356 342 348 185 214 234 224 200 179 168 162
184 191 193 182 186 191 191 189 186 185 184 184 183 183 179 177 181 177 177 180 184 198 199 195 195 197 207 207 200 194 196 208 208 196 188 185 186 186 188 185 174 169 161 157 158 163 162 155 152 147 147 146 132 129 128 127 132 120 108 102 107 111 110 109 94 87 94 92 120 147 178 196 186 173 183 278 318 299 241 254 252 249 216 185 181
184 189 191 190 194 193 192 192 189 184 180 185 186 183 181 179 177 176 182 182 181 188 180 177 179 182 194 193 186 184 186 196 198 193 187 185 185 186 186 180 171 166 161 159 162 166 162 150 147 147 148 153 148 140 135 131 126 113 107 98 97 103 100 96 83 62 58 60 82 110 167 190 193 207 216 205 278 297 302 288 271 273 269 267 249
184 191 189 191 196 190 190 192 187 187 186 186 184 183 181 177 175 174 178 176 176 176 167 169 167 170 192 192 181 174 176 183 187 187 185 182 180 180 180 176 172 166 164 163 162 167 160 145 144 145 143 158 166 156 154 154 144 134 122 111 100 100 95 79 68 58 40 28 31 6 41 152 188 213 232 220 238 284 296 300 316 316 298 304 300
186 195 193 192 193 183 183 189 189 189 186 179 175 173 164 161 161 158 160 158 155 148 149 165 159 168 183 182 178 167 168 176 179 179 177 174 169 170 171 171 169 165 169 163 152 167 175 159 153 155 151 158 164 158 169 173 162 154 140 130 119 107 98 81 63 53 46 33 22 355 357 23 208 112 185 226 242 265 285 301 322 342 17 2 327
182 191 193 192 185 172 170 184 197 190 177 167 159 148 142 141 141 143 144 132 117 98 92 105 128 153 157 159 166 160 163 168 170 171 163 159 157 160 162 163 165 163 169 153 134 159 184 172 169 174 163 158 158 159 173 174 163 158 145 136 134 123 107 91 80 70 70 67 54 34 21 23 20 26 34 39 325 297 297 306 319 331 348 6 358
176 182 190 190 173 156 156 174 193 183 167 163 156 149 142 138 140 141 133 116 98 84 78 81 97 119 129 135 143 145 151 152 154 154 148 149 149 152 153 154 162 161 168 150 137 159 185 174 168 171 161 156 160 165 173 172 162 149 138 136 134 123 113 105 94 83 82 79 66 66 61 55 47 39 39 39 25 356 346 345 353 5 340 329 343
177 181 186 185 167 155 153 159 171 172 170 170 163 156 146 141 144 138 122 111 97 85 82 78 88 104 113 117 121 125 131 133 135 137 138 142 141 143 146 149 158 156 157 145 141 160 184 175 157 152 155 155 156 165 169 170 167 157 149 150 144 117 103 106 96 86 85 78 71 64 60 59 50 43 41 33 17 4 0 6 7 12 2 317 328
182 185 183 174 165 166 166 161 165 172 178 176 164 155 147 142 137 127 116 103 86 84 93 94 96 104 110 112 115 118 122 125 130 134 136 138 139 141 144 147 152 151 149 140 142 156 171 175 160 149 154 159 161 168 170 180 190 186 179 169 154 130 112 103 86 82 80 70 69 66 60 60 50 45 52 39 4 351 1 11 7 12 6 335 329
181 181 170 150 151 168 174 172 174 178 179 173 161 148 135 131 129 122 114 100 86 86 96 103 106 106 109 114 117 118 120 124 129 132 134 137 140 140 140 144 147 150 153 149 150 157 162 170 171 158 154 162 173 179 183 203 216 205 199 195 164 140 140 126 97 83 81 73 67 71 70 64 50 41 56 50 10 354 4 12 8 10 4 359 3
163 168 160 154 163 178 179 173 173 176 172 158 144 141 138 135 135 129 120 112 103 102 104 102 103 103 104 108 113 116 118 120 123 124 123 126 130 132 134 137 142 149 153 154 159 162 163 168 175 171 165 168 175 180 193 213 225 221 214 196 162 148 161 149 119 101 93 87 77 73 69 68 66 56 62 63 42 34 35 37 33 27 24 20 20
130 163 174 170 169 169 161 154 156 159 154 147 142 144 145 139 138 135 127 123 121 123 122 114 110 108 104 104 107 112 117 118 120 118 115 114 116 118 123 128 134 143 151 159 164 166 167 169 175 179 182 186 182 181 196 210 221 234 242 224 174 154 157 155 135 111 99 91 80 79 73 69 71 67 70 74 70 65 56 52 50 45 46 43 41
157 179 179 153 132 127 120 120 135 135 132 151 156 152 148 143 143 144 140 138 137 136 133 130 129 119 111 111 110 113 118 120 121 119 115 113 113 113 114 125 138 149 161 169 169 176 181 176 176 182 189 195 191 184 188 199 212 224 238 260 254 142 161 167 152 121 110 93 75 75 76 75 75 73 72 72 70 68 61 60 58 54 55 55 56
174 182 162 132 125 127 129 138 149 146 143 158 164 159 154 153 151 148 141 140 136 131 130 131 132 127 124 124 120 121 123 126 128 124 118 115 112 111 111 127 155 164 172 177 174 185 191 178 173 180 184 185 190 189 181 186 197 204 217 238 255 164 175 179 159 144 137 105 89 81 76 76 75 74 73 74 75 71 67 67 66 63 60 61 62
150 138 126 137 144 136 142 159 165 160 163 170 168 163 161 156 151 145 135 131 134 136 138 135 133 131 128 127 125 122 121 125 129 126 121 117 114 116 118 124 144 154 162 167 164 167 168 161 162 170 175 179 191 194 181 185 192 187 192 201 189 168 175 192 172 159 151 123 114 99 88 86 80 76 74 74 77 75 73 70 69 69 65 64 66
109 106 107 123 128 134 149 158 163 164 168 173 167 161 164 160 155 147 136 131 138 143 144 140 137 133 129 126 124 120 116 115 120 120 115 108 106 112 118 118 120 127 136 140 140 144 149 152 154 159 167 173 184 187 183 190 189 173 169 171 171 169 168 183 199 179 159 141 132 118 113 107 91 80 76 79 80 77 74 69 67 69 67 67 67
110 135 151 135 109 139 159 151 155 166 171 176 172 165 165 166 164 155 147 143 146 150 148 145 142 139 136 132 129 126 121 116 114 111 102 95 93 100 110 109 103 101 106 118 126 135 145 144 141 149 159 162 165 170 176 180 171 162 165 166 167 170 165 168 181 178 158 143 135 134 134 125 106 89 80 83 85 80 76 71 67 66 66 67 67
116 140 157 163 163 177 172 154 154 169 184 187 182 181 176 174 175 168 161 157 157 157 151 149 148 144 142 137 134 132 126 121 115 105 96 94 93 95 103 101 93 92 95 104 114 122 133 132 129 137 146 147 147 148 152 155 155 156 160 165 163 159 161 164 165 165 157 145 141 141 137 127 118 107 94 86 82 79 75 71 68 67 67 68 68